Temp
80 80 77 73 61 61 56 59 65 69 73 80 81 77 72 71 69 59 73 77 77 77 79 81 82 83 83 83 83 83 83 83 83 83 82 83 83 83 83 83 83 83 83 83 84 84 83 84 84
79 79 74 67 58 54 56 64 63 70 80 81 81 78 74 67 74 70 71 78 79 78 78 80 82 82 83 83 83 83 83 83 83 83 82 83 83 83 83 84 84 83 84 83 84 83 84 83 83
79 82 67 62 57 54 57 64 70 78 82 80 72 78 74 68 73 73 78 79 79 78 78 79 82 82 83 83 83 83 83 83 83 83 83 83 83 84 83 83 83 83 83 83 84 83 83 83 83
78 73 68 58 57 63 62 68 73 77 76 78 74 67 76 79 76 78 80 80 78 78 79 82 83 83 83 83 83 83 83 83 83 83 83 83 84 84 84 84 84 84 84 84 84 83 83 83 83
77 69 59 56 59 66 65 69 72 71 76 75 75 69 70 77 82 80 79 81 76 76 79 81 83 83 83 83 83 83 83 83 83 83 83 84 84 83 84 84 84 84 84 84 84 83 83 82 83
65 67 57 56 59 65 69 68 72 76 76 74 72 70 70 80 79 80 81 78 79 77 78 80 83 83 83 83 83 83 83 83 83 83 84 84 83 84 84 84 84 84 84 84 84 83 82 82 83
66 62 62 60 60 63 64 69 69 75 74 73 78 67 71 76 81 81 79 78 78 78 78 78 79 82 84 83 83 83 83 83 83 83 83 83 83 83 84 84 84 84 84 84 84 83 83 83 83
71 67 64 67 62 63 67 70 70 75 74 82 81 66 66 76 82 80 79 78 76 77 77 76 76 76 76 79 84 84 83 83 83 83 83 83 83 84 84 83 84 84 84 84 84 83 83 83 82
81 64 57 66 63 66 71 68 71 72 76 80 81 77 79 82 81 78 76 75 75 76 75 75 75 74 75 77 81 83 83 83 83 82 83 81 76 78 80 82 84 85 84 84 84 83 83 81 82
72 60 64 75 71 67 72 70 67 68 74 76 76 81 83 83 79 75 73 72 73 73 75 75 75 74 75 82 76 76 79 77 76 75 76 75 75 75 80 82 85 85 84 84 83 82 80 76 73
71 65 75 76 76 75 71 67 71 67 66 74 72 77 80 81 79 75 75 74 74 75 77 76 76 76 76 77 74 74 75 75 75 75 75 75 74 75 74 74 75 76 79 76 75 74 73 73 72
65 76 79 82 79 74 69 73 70 70 71 78 81 82 81 80 78 77 75 76 75 76 77 77 77 77 74 76 75 75 75 74 74 74 75 73 70 71 72 73 72 71 71 72 71 71 72 73 75
70 75 81 85 83 76 74 70 72 71 76 81 82 83 80 80 79 79 79 79 77 76 78 78 78 76 75 75 75 74 74 74 75 75 74 73 71 71 71 72 72 70 70 70 69 69 71 72 73
77 78 80 84 78 76 72 69 68 74 76 76 80 80 81 80 79 80 80 78 78 79 79 79 79 75 76 75 75 75 75 75 77 75 73 74 73 72 71 71 71 71 70 69 71 70 70 70 74
78 71 75 76 78 73 74 64 63 74 77 76 76 80 82 82 82 80 81 79 81 81 80 79 79 79 78 77 75 77 76 75 77 76 75 75 74 73 72 71 71 71 70 71 71 71 70 70 72
67 65 59 72 75 73 74 60 70 74 73 74 77 81 83 83 82 84 83 80 81 81 79 80 84 80 77 76 78 77 75 76 76 76 74 76 76 75 73 71 71 71 70 71 70 70 70 70 72
59 52 58 67 77 76 76 61 68 69 75 73 75 79 82 82 83 85 85 82 81 80 79 79 78 77 77 76 76 77 75 75 76 76 75 76 76 75 74 72 71 71 71 71 71 69 71 71 73
52 53 56 61 73 73 67 65 65 69 71 72 74 73 77 81 83 84 86 83 82 81 80 79 78 76 76 75 75 75 75 75 76 76 77 77 75 76 73 73 74 73 72 71 71 71 73 73 72
63 59 60 68 75 70 66 64 64 68 69 68 70 72 72 78 85 85 87 83 82 81 79 78 75 74 74 72 72 72 73 74 74 76 78 76 75 77 73 73 74 73 74 72 72 74 74 73 72
64 60 60 67 73 69 63 61 66 66 67 71 70 74 74 77 80 81 84 83 80 79 78 77 77 75 75 74 73 74 73 74 76 77 78 78 76 77 76 74 74 73 72 73 73 72 71 71 71
61 56 60 62 71 68 64 60 61 66 68 70 71 75 74 77 79 79 82 82 80 80 76 77 76 76 76 75 73 73 74 74 73 74 75 76 78 78 76 76 75 74 73 71 73 72 72 70 71
52 68 69 68 60 53 63 46 58 64 61 66 68 72 73 77 81 82 82 82 81 80 79 78 77 76 77 75 73 72 71 71 73 74 77 76 78 77 78 77 76 75 74 72 73 75 73 71 70
63 72 67 65 56 54 57 52 50 63 60 64 67 70 71 76 81 82 82 83 82 82 80 78 78 76 78 78 75 74 71 73 74 75 75 75 75 77 78 77 76 75 74 73 74 74 73 72 71
74 66 61 56 53 45 50 53 49 57 63 66 69 71 73 74 75 76 84 84 82 83 81 79 77 77 76 77 73 73 72 72 72 74 75 74 74 75 76 78 76 76 74 75 75 74 75 73 73
64 53 43 42 43 42 47 52 55 64 71 70 70 73 76 80 78 78 78 82 80 80 80 78 77 75 77 75 75 75 74 73 73 74 78 75 73 73 75 76 74 74 75 75 75 74 75 74 73
55 52 44 37 38 43 53 48 58 69 74 77 75 76 77 78 78 79 81 83 81 80 80 78 76 76 77 76 75 75 75 74 75 74 79 79 79 78 76 77 76 75 75 76 75 74 74 74 74
58 50 56 47 42 43 49 58 67 72 70 74 73 73 76 76 72 77 82 85 82 80 80 79 77 77 77 77 77 73 75 73 76 74 75 78 81 80 76 78 76 76 75 75 74 73 74 74 73
55 59 49 45 37 35 45 49 53 61 63 69 67 69 73 74 75 77 82 83 82 82 81 80 79 78 77 78 78 78 75 73 73 74 74 75 78 77 76 77 77 76 75 75 74 73 74 73 73
51 48 47 45 44 39 38 46 58 60 62 63 68 72 73 77 75 77 81 84 83 82 82 80 80 79 77 78 78 78 77 73 72 73 75 75 76 76 77 78 78 77 76 75 73 73 74 73 73
55 50 44 38 41 43 44 47 64 65 66 69 70 73 75 78 79 80 80 81 83 82 82 80 80 79 79 79 78 77 78 77 72 74 74 75 75 75 76 77 78 78 77 75 74 73 75 73 73
MSLP
1012.28 1012.35 1012.78 1012.90 1013.48 1012.91 1012.42 1011.44 1010.62 1008.79 1007.98 1007.90 1008.79 1009.28 1010.30 1011.18 1012.05 1013.53 1013.24 1013.80 1014.26 1015.14 1015.46 1015.77 1016.04 1016.23 1016.50 1016.72 1016.83 1017.03 1017.32 1017.50 1017.59 1017.62 1017.74 1017.84 1017.97 1018.09 1018.10 1018.12 1018.07 1018.16 1018.21 1018.22 1018.26 1018.34 1018.37 1018.44 1018.48
1012.04 1012.48 1012.63 1012.12 1012.80 1012.57 1012.18 1011.18 1009.83 1008.48 1007.72 1008.01 1008.98 1009.28 1010.16 1011.39 1011.84 1012.82 1013.48 1013.98 1014.20 1014.92 1015.45 1015.74 1016.00 1016.34 1016.63 1016.84 1017.10 1017.20 1017.34 1017.47 1017.57 1017.78 1018.01 1018.12 1018.17 1018.22 1018.27 1018.24 1018.23 1018.28 1018.34 1018.42 1018.47 1018.54 1018.63 1018.78 1019.02
1012.10 1011.88 1012.10 1012.24 1012.11 1012.02 1011.91 1010.90 1009.55 1008.23 1008.04 1008.19 1009.52 1009.85 1010.80 1011.79 1012.22 1012.75 1013.16 1013.79 1014.35 1015.09 1015.52 1015.76 1016.02 1016.39 1016.69 1016.97 1017.16 1017.26 1017.39 1017.51 1017.66 1017.83 1018.03 1018.23 1018.34 1018.40 1018.48 1018.42 1018.44 1018.43 1018.56 1018.55 1018.61 1018.78 1018.97 1019.10 1019.23
1011.77 1012.06 1011.71 1012.47 1012.19 1011.94 1011.37 1010.71 1009.96 1008.70 1008.87 1008.59 1009.55 1010.69 1011.32 1011.98 1012.24 1012.50 1013.42 1013.99 1014.55 1015.20 1015.60 1015.77 1016.10 1016.39 1016.68 1016.92 1017.13 1017.34 1017.46 1017.61 1017.71 1017.96 1018.16 1018.29 1018.44 1018.56 1018.60 1018.64 1018.70 1018.69 1018.72 1018.91 1019.05 1019.23 1019.32 1019.27 1019.30
1011.76 1011.93 1012.35 1012.44 1012.77 1012.40 1011.99 1011.44 1011.05 1010.14 1008.89 1009.22 1009.55 1010.79 1011.62 1012.48 1012.74 1013.21 1013.80 1014.33 1014.76 1015.46 1015.70 1015.88 1016.16 1016.43 1016.66 1016.92 1017.14 1017.34 1017.56 1017.68 1017.96 1018.14 1018.36 1018.39 1018.45 1018.70 1018.66 1018.71 1018.69 1018.80 1018.86 1018.99 1019.23 1019.52 1019.58 1019.50 1019.44
1012.16 1012.14 1012.50 1012.56 1012.71 1012.22 1011.07 1011.45 1010.75 1009.90 1009.43 1009.86 1010.32 1010.74 1012.16 1012.74 1013.30 1013.73 1014.06 1014.77 1015.03 1015.55 1015.82 1015.99 1016.28 1016.54 1016.75 1016.96 1017.11 1017.32 1017.61 1017.96 1018.12 1018.30 1018.36 1018.50 1018.71 1018.79 1018.84 1018.91 1018.92 1018.94 1018.95 1019.11 1019.39 1019.67 1019.80 1019.72 1019.67
1011.80 1011.92 1011.91 1011.86 1012.32 1012.16 1011.15 1011.33 1011.19 1010.30 1009.72 1009.69 1009.99 1010.87 1012.38 1012.96 1013.69 1014.00 1014.44 1015.12 1015.42 1015.77 1015.98 1016.23 1016.45 1016.66 1016.92 1017.07 1017.24 1017.45 1017.73 1018.02 1018.15 1018.37 1018.42 1018.64 1018.80 1018.81 1018.71 1018.89 1019.09 1019.28 1019.34 1019.40 1019.46 1019.72 1019.86 1019.80 1019.88
1011.35 1011.43 1011.27 1011.15 1011.75 1011.56 1011.96 1011.92 1011.75 1010.90 1010.69 1010.06 1010.07 1010.79 1011.76 1012.33 1013.52 1014.36 1014.82 1015.45 1015.90 1016.19 1016.27 1016.48 1016.69 1016.90 1017.17 1017.23 1017.41 1017.54 1017.78 1018.05 1018.19 1018.45 1018.54 1018.77 1018.80 1018.75 1018.79 1019.00 1019.02 1019.14 1019.28 1019.34 1019.49 1019.76 1019.93 1019.97 1020.12
1010.89 1010.98 1010.60 1010.41 1010.57 1010.48 1011.34 1011.82 1011.98 1011.45 1010.89 1010.09 1009.90 1010.00 1010.97 1011.94 1013.39 1014.57 1015.26 1016.02 1016.47 1016.67 1016.73 1016.75 1016.87 1017.09 1017.34 1017.46 1017.56 1017.61 1017.84 1018.06 1018.33 1018.53 1018.58 1018.78 1019.07 1019.04 1019.05 1019.12 1019.18 1019.30 1019.39 1019.55 1019.54 1019.82 1020.01 1020.27 1020.35
1010.62 1010.02 1009.41 1008.61 1008.88 1009.94 1010.47 1011.37 1012.14 1012.02 1011.46 1010.72 1010.55 1011.02 1011.64 1012.28 1013.44 1014.35 1015.10 1015.98 1016.61 1016.76 1016.92 1017.04 1017.02 1017.18 1017.39 1017.38 1017.65 1017.84 1017.78 1018.02 1018.46 1018.73 1018.77 1018.92 1019.13 1019.17 1019.13 1019.26 1019.35 1019.50 1019.36 1019.17 1019.49 1019.92 1020.25 1020.65 1020.75
1009.21 1008.73 1008.24 1008.14 1008.44 1008.98 1010.00 1011.54 1011.69 1011.36 1011.75 1010.66 1010.24 1010.68 1011.73 1012.40 1013.42 1014.26 1014.88 1015.24 1015.91 1016.40 1016.70 1017.04 1017.06 1017.06 1017.17 1017.36 1017.82 1017.93 1017.79 1017.99 1018.42 1018.72 1018.86 1018.87 1019.28 1019.25 1019.38 1019.61 1019.68 1019.90 1019.70 1019.76 1019.74 1020.20 1020.24 1020.45 1020.81
1008.70 1007.42 1007.26 1006.99 1007.84 1008.92 1010.25 1010.97 1011.39 1011.46 1010.92 1010.78 1009.62 1009.74 1011.10 1012.22 1013.17 1013.97 1014.64 1015.37 1016.10 1016.40 1016.50 1016.80 1016.90 1017.08 1017.18 1017.40 1017.79 1017.97 1017.83 1018.07 1018.57 1018.73 1018.88 1019.13 1019.50 1019.69 1019.70 1019.86 1020.02 1020.24 1020.27 1020.31 1020.06 1020.35 1020.31 1020.27 1020.66
1008.25 1006.72 1006.46 1006.15 1006.70 1008.56 1009.91 1010.66 1011.06 1010.80 1010.31 1010.80 1011.00 1010.84 1011.12 1012.00 1013.12 1013.96 1014.27 1014.96 1015.72 1016.16 1016.50 1016.69 1016.75 1017.18 1017.28 1017.47 1017.73 1017.95 1017.88 1018.00 1018.49 1018.66 1018.72 1019.08 1019.62 1019.88 1019.86 1019.95 1020.06 1020.20 1020.52 1020.43 1020.21 1020.50 1020.50 1020.62 1020.79
1006.78 1006.38 1005.96 1005.79 1006.76 1007.82 1008.63 1009.10 1011.20 1010.76 1010.45 1010.71 1010.79 1011.04 1011.36 1011.79 1012.57 1013.54 1014.15 1014.88 1015.42 1015.82 1016.27 1016.56 1016.90 1017.20 1017.24 1017.34 1017.51 1017.77 1017.74 1017.91 1018.24 1018.70 1018.70 1018.78 1019.38 1019.61 1020.00 1020.16 1020.04 1020.53 1020.40 1020.45 1020.36 1020.44 1020.69 1021.06 1020.96
1006.82 1006.64 1005.74 1005.36 1006.82 1008.17 1009.56 1010.98 1011.18 1010.98 1010.36 1010.63 1010.94 1011.13 1011.37 1011.58 1012.18 1012.72 1013.60 1014.30 1014.74 1015.34 1016.04 1016.53 1016.84 1017.04 1017.08 1017.17 1017.43 1017.44 1017.46 1017.67 1018.04 1018.29 1018.49 1018.60 1018.88 1019.40 1019.91 1020.17 1019.98 1020.21 1020.42 1020.27 1020.48 1020.64 1020.82 1021.29 1021.12
1006.94 1006.94 1006.30 1005.25 1005.61 1007.82 1007.44 1010.42 1010.44 1010.94 1010.50 1010.30 1010.67 1010.87 1010.84 1011.14 1011.62 1012.30 1013.06 1013.84 1014.48 1015.01 1015.79 1016.34 1016.71 1016.99 1017.27 1017.11 1017.18 1017.29 1017.46 1017.53 1017.87 1018.07 1018.30 1018.42 1018.70 1019.32 1019.84 1020.14 1020.11 1020.09 1020.31 1020.40 1020.80 1020.90 1021.16 1021.28 1021.58
1008.04 1007.82 1007.20 1006.12 1004.98 1007.36 1007.68 1009.72 1010.58 1011.20 1010.54 1010.47 1010.02 1009.65 1010.24 1010.70 1011.38 1012.05 1012.82 1013.41 1014.07 1014.60 1015.42 1016.14 1016.50 1016.83 1017.03 1017.07 1017.16 1017.31 1017.52 1017.62 1017.78 1018.00 1018.22 1018.43 1018.64 1019.10 1019.38 1020.09 1020.08 1020.05 1020.31 1020.52 1020.90 1021.29 1021.49 1021.56 1021.41
1008.78 1008.36 1007.63 1007.00 1005.85 1006.04 1007.62 1009.22 1010.30 1010.10 1010.91 1010.88 1010.28 1010.70 1010.36 1010.59 1010.83 1011.64 1012.48 1013.34 1013.66 1014.43 1015.12 1015.58 1016.28 1016.71 1017.05 1017.35 1017.48 1017.46 1017.67 1017.76 1017.90 1018.08 1018.20 1018.44 1018.69 1018.92 1019.24 1019.60 1019.85 1019.92 1020.38 1020.72 1020.99 1021.19 1021.41 1021.44 1021.42
1008.57 1008.52 1007.95 1006.88 1006.48 1006.96 1007.27 1008.92 1009.38 1009.71 1009.84 1009.96 1010.30 1009.70 1010.14 1010.44 1010.59 1011.24 1011.93 1012.97 1013.44 1014.26 1015.01 1015.48 1016.13 1016.64 1016.99 1017.45 1017.85 1017.82 1017.92 1018.07 1018.16 1018.04 1018.10 1018.37 1018.66 1018.84 1019.24 1019.51 1019.66 1019.93 1020.47 1020.67 1020.76 1020.84 1021.22 1021.54 1021.52
1008.22 1008.37 1007.86 1006.62 1006.32 1006.67 1007.51 1008.53 1008.90 1009.62 1009.21 1008.95 1009.14 1008.02 1009.10 1009.86 1010.32 1010.79 1011.52 1012.46 1013.02 1013.81 1014.57 1015.21 1015.81 1016.22 1016.75 1017.04 1017.47 1017.45 1017.68 1017.96 1017.84 1017.91 1018.05 1018.32 1018.63 1018.67 1018.99 1019.24 1019.38 1019.76 1020.00 1020.32 1020.50 1020.56 1021.08 1021.44 1021.56
1007.71 1007.92 1007.62 1007.10 1006.48 1006.64 1008.08 1010.11 1010.80 1010.63 1010.35 1009.86 1009.94 1009.49 1009.00 1008.62 1009.37 1009.94 1010.97 1011.77 1012.58 1013.26 1014.02 1014.78 1015.33 1015.82 1016.24 1016.70 1017.31 1017.58 1017.86 1018.10 1018.29 1018.30 1018.30 1018.34 1018.46 1018.62 1018.86 1019.12 1019.38 1019.54 1019.88 1020.42 1020.45 1020.70 1021.00 1021.34 1021.38
1007.40 1006.72 1007.00 1007.00 1007.25 1007.52 1007.64 1010.05 1010.80 1010.74 1011.13 1010.62 1010.20 1009.62 1009.00 1008.48 1008.46 1009.32 1010.04 1011.06 1011.98 1012.64 1013.47 1014.19 1014.86 1015.49 1015.98 1016.39 1016.99 1017.45 1017.82 1018.16 1018.13 1017.99 1018.11 1018.31 1018.48 1018.65 1018.74 1018.94 1019.25 1019.49 1019.69 1020.19 1020.33 1020.51 1020.78 1021.08 1021.36
1006.68 1006.24 1006.74 1007.08 1007.83 1007.96 1008.44 1009.06 1009.73 1010.44 1010.52 1009.79 1009.28 1008.84 1008.56 1008.08 1008.10 1008.54 1009.37 1009.94 1010.86 1011.92 1012.80 1013.76 1014.38 1015.10 1015.69 1016.32 1016.65 1017.14 1017.68 1017.75 1017.63 1017.83 1018.06 1018.32 1018.42 1018.48 1018.53 1018.73 1019.01 1019.29 1019.44 1019.79 1020.07 1020.23 1020.56 1020.80 1021.12
1005.82 1006.45 1007.09 1007.95 1008.72 1009.30 1009.01 1009.00 1009.82 1009.44 1008.06 1008.42 1008.44 1008.10 1007.42 1007.20 1007.45 1008.12 1008.63 1009.44 1010.30 1011.33 1012.14 1013.12 1013.88 1014.57 1015.24 1015.95 1016.48 1016.83 1017.42 1017.66 1017.73 1017.79 1018.16 1018.31 1018.56 1018.55 1018.50 1018.60 1018.89 1019.02 1019.16 1019.46 1019.69 1019.94 1020.30 1020.57 1020.83
1005.98 1007.46 1008.88 1009.65 1009.98 1010.11 1008.95 1008.88 1007.87 1007.16 1007.04 1006.70 1006.65 1006.68 1006.58 1006.66 1007.14 1007.00 1007.80 1008.86 1009.96 1010.72 1011.62 1012.48 1013.24 1014.09 1014.73 1015.44 1016.12 1016.51 1016.86 1017.32 1017.60 1017.60 1017.72 1018.06 1018.44 1018.50 1018.60 1018.51 1018.99 1018.98 1019.06 1019.18 1019.43 1019.87 1020.10 1020.34 1020.60
1007.34 1008.04 1009.48 1010.40 1010.93 1010.46 1009.01 1008.26 1006.62 1005.64 1005.33 1005.08 1005.21 1005.71 1006.42 1006.45 1006.76 1006.42 1006.65 1007.75 1009.11 1009.99 1010.80 1011.66 1012.55 1013.35 1014.15 1014.90 1015.57 1016.10 1016.41 1016.88 1017.05 1017.26 1017.39 1017.60 1017.75 1017.75 1017.86 1018.10 1018.39 1018.59 1018.80 1019.01 1019.30 1019.77 1019.94 1020.09 1020.34
1007.76 1008.40 1009.02 1010.41 1011.24 1011.20 1009.86 1008.00 1005.80 1005.37 1005.18 1004.65 1004.98 1005.62 1005.47 1005.43 1005.71 1005.87 1006.22 1006.88 1007.99 1009.00 1009.71 1010.61 1011.66 1012.53 1013.32 1014.15 1014.99 1015.73 1016.09 1016.47 1016.62 1016.77 1017.00 1017.14 1017.17 1017.25 1017.56 1017.61 1018.13 1018.24 1018.58 1018.81 1019.02 1019.54 1019.75 1019.86 1020.12
1009.96 1009.71 1010.27 1011.39 1012.06 1011.97 1010.67 1008.96 1007.25 1006.88 1006.84 1005.94 1006.22 1006.13 1005.02 1004.35 1004.90 1005.26 1005.28 1006.03 1007.11 1007.96 1008.98 1009.98 1010.61 1011.45 1012.37 1013.34 1014.23 1015.00 1015.66 1016.09 1016.30 1016.57 1016.69 1016.83 1016.90 1016.95 1017.25 1017.64 1017.84 1018.09 1018.29 1018.60 1019.01 1019.33 1019.54 1019.79 1019.88
1011.30 1011.81 1012.46 1012.77 1012.37 1012.20 1011.33 1009.89 1007.78 1007.60 1007.89 1007.38 1006.43 1005.05 1004.11 1004.20 1004.10 1004.12 1004.43 1005.23 1006.37 1007.22 1008.22 1009.22 1010.12 1010.92 1011.71 1012.36 1013.24 1014.24 1015.06 1015.70 1016.00 1016.26 1016.44 1016.57 1016.67 1016.89 1017.06 1017.36 1017.64 1017.86 1018.15 1018.53 1018.90 1019.09 1019.33 1019.56 1019.70
1012.49 1013.94 1014.64 1015.09 1014.01 1012.78 1011.59 1010.17 1008.41 1007.60 1007.02 1006.80 1006.10 1004.08 1002.37 1003.12 1003.74 1003.57 1004.02 1004.68 1005.34 1005.78 1006.65 1008.04 1009.37 1010.09 1010.71 1011.43 1012.37 1013.33 1014.16 1015.02 1015.61 1015.81 1016.03 1016.21 1016.46 1016.51 1016.63 1016.96 1017.24 1017.53 1017.84 1018.17 1018.52 1018.78 1018.98 1019.35 1019.54
Wind_Speed
9 7 2 2 2 1 1 5 4 7 8 10 17 7 6 3 2 3 10 11 16 14 10 10 12 12 12 13 13 14 15 14 13 12 13 12 10 11 10 10 10 11 10 11 11 11 11 11 11
7 6 2 2 1 2 3 2 8 11 6 17 10 11 5 2 4 12 10 15 17 14 9 8 13 13 15 14 13 14 14 13 12 12 12 12 11 11 10 11 11 11 11 12 11 11 11 11 10
8 7 2 1 3 3 2 5 9 12 15 10 6 6 4 4 13 13 15 19 17 12 9 10 15 14 15 15 14 13 12 12 11 12 12 11 10 11 10 12 12 10 11 13 11 10 11 11 11
5 1 1 4 3 4 1 8 5 14 6 10 14 11 6 9 9 11 19 18 16 13 10 14 16 15 14 14 14 13 13 12 12 12 13 11 11 11 11 11 11 11 11 12 11 10 10 10 10
1 1 3 1 4 2 3 11 11 11 4 12 6 9 6 4 15 20 18 16 15 12 10 11 15 15 14 14 14 14 13 13 13 12 12 12 11 10 10 12 12 12 11 10 10 10 9 9 9
1 0 0 3 3 9 8 9 7 7 13 12 13 12 4 19 19 16 16 15 14 13 10 10 15 15 16 15 14 15 14 13 12 13 12 11 10 9 9 9 10 11 12 11 9 9 7 7 9
2 1 1 4 5 2 9 10 9 7 11 10 13 9 12 18 16 17 16 14 14 12 9 8 8 13 16 15 15 15 14 13 12 13 12 11 11 9 10 9 9 10 10 11 10 9 8 6 8
3 2 2 1 4 6 4 2 11 6 3 14 13 8 17 19 19 16 15 14 13 11 9 8 6 6 6 7 15 14 14 13 11 12 10 10 10 11 10 8 9 10 9 10 7 7 8 9 9
2 3 2 0 2 2 7 5 6 12 9 7 5 13 22 24 21 17 15 12 9 9 8 6 7 7 6 5 9 13 14 13 11 10 10 7 3 4 6 7 8 10 9 8 9 11 12 11 11
8 4 6 8 10 5 11 8 8 4 12 7 5 17 19 21 23 21 17 13 11 12 10 8 8 7 6 7 5 5 7 5 5 5 4 4 4 4 4 7 8 9 8 9 9 13 14 8 3
6 7 9 10 4 12 11 9 11 7 10 9 22 22 22 20 21 20 18 19 17 14 11 10 9 9 7 6 4 3 3 3 4 5 5 3 3 2 2 2 3 4 2 2 4 6 3 5 2
4 10 12 14 13 13 9 8 4 9 2 8 24 25 24 21 20 20 18 15 15 14 14 12 11 9 6 5 4 4 4 3 3 4 6 4 3 3 2 3 3 4 0 3 2 2 4 2 4
9 18 15 16 14 18 15 4 3 9 6 12 16 18 21 16 21 17 18 16 15 14 13 13 11 8 5 7 4 4 4 4 4 4 5 5 4 3 3 3 3 3 3 1 2 2 2 4 4
7 10 13 9 20 18 18 9 4 5 9 15 17 18 17 14 24 17 16 16 16 14 14 12 11 6 7 7 6 5 4 5 6 5 5 6 5 4 4 3 3 4 3 3 2 3 2 1 1
10 7 8 4 15 14 19 7 7 4 7 20 18 17 15 16 21 17 17 16 18 15 14 13 11 10 9 7 6 5 5 4 5 4 7 6 5 6 5 3 3 3 3 4 2 3 2 3 1
4 4 5 7 4 16 8 9 9 9 15 21 21 18 15 16 13 20 16 14 14 16 16 13 11 11 8 6 6 5 4 4 4 4 4 6 6 7 7 4 4 4 4 3 2 2 2 3 3
7 1 4 9 5 20 7 6 8 4 13 21 19 19 18 14 12 17 15 17 17 17 15 10 9 8 8 5 5 5 6 4 4 3 4 5 6 6 6 5 3 5 3 1 2 2 2 3 2
3 3 4 5 7 2 5 9 13 18 8 11 16 3 10 13 14 16 18 16 18 16 14 12 9 8 7 6 3 2 4 3 4 4 4 6 5 7 5 4 5 5 3 3 3 4 2 2 2
3 2 8 14 12 5 7 19 23 12 15 14 12 15 12 13 12 15 17 15 18 17 14 13 10 8 5 3 3 2 3 3 2 3 6 6 5 6 6 4 5 5 6 6 5 3 4 1 1
6 5 10 12 5 3 9 14 21 18 17 20 20 23 19 16 14 14 17 16 19 18 15 13 14 12 6 4 3 2 3 2 3 4 5 6 6 5 5 5 4 6 4 4 2 2 2 1 2
6 6 8 11 10 0 15 6 12 11 8 12 9 8 13 22 19 17 21 18 19 20 16 16 14 13 9 7 4 2 3 3 2 1 3 4 6 5 6 6 5 5 4 4 3 3 3 2 1
6 8 10 8 3 3 3 5 10 15 13 14 13 12 14 18 20 17 24 22 19 18 16 16 15 14 10 8 6 5 4 4 4 5 3 4 6 7 6 7 6 5 4 5 4 4 3 3 3
12 12 8 2 3 5 3 5 3 16 13 19 18 13 12 16 19 20 21 24 22 20 18 15 16 15 13 11 8 7 4 4 3 3 6 5 5 7 6 6 6 6 4 5 6 3 5 3 2
11 4 5 5 4 3 3 5 2 16 25 15 13 17 17 18 16 10 15 21 20 18 18 17 17 17 13 13 8 9 8 6 4 5 5 4 4 4 6 6 5 6 5 5 4 4 4 4 2
3 7 4 5 3 7 2 4 9 19 14 22 22 24 19 18 15 17 14 20 19 21 20 17 18 16 16 14 12 11 10 8 8 7 8 6 4 3 6 7 6 4 5 5 5 4 3 3 2
4 8 8 6 4 3 5 4 7 11 10 23 24 24 19 16 19 17 21 19 21 22 21 20 19 17 17 16 14 11 10 6 6 6 7 8 8 7 7 8 7 7 7 6 5 3 3 4 3
8 1 7 5 3 5 4 8 10 11 6 12 20 18 22 15 11 16 19 21 22 23 24 22 20 18 18 18 14 10 10 7 9 8 6 7 9 6 8 9 8 7 7 6 6 4 5 4 4
8 5 4 4 2 3 4 3 7 10 13 8 4 15 21 14 11 16 17 23 19 21 20 21 21 21 20 17 15 12 11 7 7 6 7 7 8 6 8 8 9 7 7 6 6 5 4 5 4
9 7 6 0 4 6 3 6 1 4 6 3 7 10 27 23 17 19 17 21 18 17 19 19 19 20 18 18 17 15 13 8 7 7 7 7 7 8 8 10 10 10 8 7 6 6 6 6 5
4 6 6 5 9 1 5 6 2 7 5 9 13 19 12 24 18 20 19 22 22 22 21 20 19 20 19 19 17 16 14 13 8 9 8 7 7 7 8 10 11 10 9 7 8 7 6 7 6
Wind_Direction
179 166 179 176 209 218 217 259 305 294 138 171 162 159 163 50 174 193 134 148 134 145 153 158 152 147 138 134 127 123 128 130 128 126 123 113 118 106 108 105 98 111 106 103 105 104 100 98 102
180 158 182 233 149 100 276 250 266 258 118 112 108 104 73 76 89 117 124 140 138 143 147 149 144 142 139 137 131 131 132 134 128 126 122 117 115 116 103 113 110 105 123 117 114 109 101 90 98
174 203 254 203 82 162 208 223 262 130 134 118 108 51 68 104 114 140 129 135 134 137 138 150 142 141 142 137 137 136 133 135 132 125 124 125 116 109 110 108 106 107 112 106 112 106 104 100 105
180 244 16 36 350 302 26 238 239 124 51 55 110 84 87 112 142 130 134 133 131 134 142 147 146 145 145 141 144 146 139 135 133 133 126 130 118 117 110 104 105 102 102 107 111 113 106 111 112
20 56 60 99 279 317 324 305 284 289 124 122 138 109 76 65 115 128 133 136 133 135 144 147 150 150 148 144 145 142 140 140 135 133 126 120 122 113 115 115 117 116 115 118 115 104 104 108 98
80 30 205 6 8 346 326 315 286 212 122 109 100 107 94 131 135 140 130 133 134 136 141 148 150 146 141 139 146 145 146 141 138 131 136 123 118 116 111 113 117 114 117 119 111 102 96 101 86
234 209 281 176 123 26 310 320 288 155 138 126 140 106 132 141 147 138 134 134 133 136 133 136 144 146 143 147 144 142 143 143 139 136 133 135 128 130 133 121 121 110 107 104 103 92 80 88 92
207 280 260 246 188 208 210 276 330 179 34 123 137 155 162 154 148 136 134 135 135 138 136 137 132 113 131 144 146 144 142 143 145 137 140 140 143 140 133 131 137 128 120 111 100 93 86 91 91
215 262 239 301 207 236 149 84 8 337 194 162 201 150 154 149 135 134 131 129 133 141 145 142 138 136 138 143 154 146 143 144 144 145 148 138 105 120 128 152 143 129 115 99 96 90 91 70 76
197 199 227 190 160 198 162 136 120 231 200 186 122 137 152 151 145 143 146 147 154 156 158 154 152 151 153 160 139 136 150 142 142 143 149 137 152 156 159 147 142 129 130 125 102 82 81 71 54
230 232 235 201 165 144 139 125 137 173 232 208 158 152 163 157 151 150 154 160 167 165 161 165 167 169 165 149 150 154 158 161 142 161 154 168 109 153 115 82 81 83 51 63 83 82 98 94 64
279 263 247 251 171 151 149 124 184 177 162 192 165 158 160 157 154 159 159 161 161 167 170 169 178 174 172 155 162 162 170 163 139 177 164 137 119 106 148 125 123 121 50 43 28 75 89 36 91
238 255 261 261 192 141 139 205 259 207 158 175 181 166 161 165 153 165 163 166 164 167 169 174 177 179 162 157 164 164 189 173 146 177 177 149 138 155 152 135 152 139 130 158 54 326 358 19 347
250 258 265 275 134 156 159 160 68 207 139 159 174 173 171 164 159 164 166 164 171 168 170 177 179 161 165 178 175 177 193 177 157 159 171 134 143 149 157 151 178 138 191 195 170 255 28 302 288
245 277 292 264 148 151 127 87 274 265 186 165 179 172 186 167 159 166 169 167 171 166 163 176 174 159 175 199 181 170 191 170 149 176 160 157 144 147 135 172 189 162 203 180 116 314 308 231 13
6 69 340 298 104 164 157 185 229 229 176 164 181 176 185 180 159 172 167 158 159 154 162 173 168 163 167 153 152 154 162 169 147 163 155 152 135 145 152 156 182 189 195 146 153 186 246 307 155
14 249 313 313 281 160 227 132 178 321 160 165 175 180 175 180 175 163 168 162 160 155 155 166 149 161 153 135 143 166 163 157 142 153 149 161 145 158 132 137 176 180 184 136 140 170 169 196 225
268 321 319 246 312 28 115 132 148 156 182 166 159 138 185 187 191 164 173 165 158 158 160 152 153 153 166 137 142 145 149 159 157 174 164 164 156 145 135 143 154 171 155 193 193 176 178 162 189
229 244 288 288 281 254 192 157 180 169 163 165 175 162 185 199 187 167 176 156 162 164 161 160 153 171 152 135 150 132 164 164 172 174 165 158 154 158 142 161 145 145 161 179 189 155 144 118 138
266 250 273 285 256 270 152 193 176 188 193 177 199 176 174 191 176 166 179 160 169 169 170 166 172 166 173 154 159 163 149 199 165 175 170 160 173 162 142 155 151 159 130 129 156 128 100 122 147
248 211 251 248 304 19 108 130 185 215 214 226 267 227 183 184 192 170 181 179 173 175 169 174 173 172 172 166 139 100 68 35 66 171 185 177 182 177 161 156 164 172 148 154 175 131 138 136 255
272 227 244 269 47 258 95 196 204 202 209 238 235 216 213 200 190 184 177 182 176 178 171 174 170 171 177 170 163 162 174 168 203 175 181 170 181 188 174 167 166 167 165 166 165 173 146 124 220
240 257 240 233 85 350 55 93 265 178 219 212 215 201 201 196 195 194 182 182 179 178 174 176 174 172 176 187 180 179 181 192 175 171 179 178 184 185 181 174 170 165 165 175 167 152 141 164 161
239 222 23 56 98 1 151 125 221 177 210 217 218 213 199 183 180 188 184 183 181 179 175 176 173 179 174 181 192 184 192 200 166 180 184 185 186 183 184 176 180 172 166 172 165 143 150 144 135
97 70 10 350 5 215 146 63 227 212 194 201 206 216 210 192 189 185 183 184 182 180 180 179 178 179 180 181 193 201 199 199 187 183 192 174 176 166 204 175 183 177 176 174 163 158 166 170 155
278 147 152 191 201 263 334 226 258 210 203 202 201 210 208 208 205 194 186 178 181 183 183 181 181 182 183 185 193 202 204 200 203 182 197 194 192 184 184 189 184 182 180 180 172 170 186 178 184
302 116 182 119 141 80 243 299 324 16 326 203 200 200 212 210 197 192 188 189 182 184 187 184 182 185 186 190 191 197 208 203 205 198 182 193 194 188 184 185 188 186 184 184 176 181 193 189 192
95 279 347 18 176 189 279 233 240 40 29 16 274 242 238 220 192 189 188 189 181 186 188 189 184 185 185 188 193 199 208 207 212 197 197 190 207 191 172 186 192 189 188 187 183 184 208 196 221
351 2 360 149 145 150 166 261 205 77 99 191 270 338 231 219 200 191 185 185 186 180 184 191 189 188 187 189 190 197 204 212 196 201 205 199 195 196 188 191 192 193 192 190 187 195 197 213 225
164 63 74 56 310 248 138 271 89 88 12 16 356 344 282 215 203 192 179 176 188 189 178 186 192 192 191 189 189 194 196 204 209 210 206 198 198 192 196 187 190 190 195 189 193 201 196 198 214